Simultaneous Nadir Overpasses (SNOs) Predictions

Prediction of SNOs between AQUA and GOES-15 Satellite Orbit:

Table of predicted SNOs for the next 14.0 days since TLE Epoch: 10/17/2025
Index Date Time (AQUA) AQUA Lat,Lon GOES-15 Lat,Lon Distance(km) Time Diff (sec)
1 10/18/2025 22:47:01 -0.39, 62.48 -0.19, 61.43 119.56 80
2 10/19/2025 11:06:09 -0.67, 57.87 0.12, 61.48 410.34 80
3 10/21/2025 10:45:16 0.48, 62.98 0.16, 61.49 169.57 80
4 10/21/2025 23:04:15 0.58, 58.41 -0.09, 61.45 346.44 80
5 10/23/2025 22:43:21 -0.57, 63.52 -0.13, 61.48 232.19 80
6 10/24/2025 11:02:27 -0.51, 58.92 0.06, 61.54 298.65 80
7 10/26/2025 10:41:32 0.64, 64.04 0.11, 61.57 280.56 80
8 10/26/2025 23:00:31 0.39, 59.46 -0.04, 61.52 234.70 80
9 10/28/2025 22:39:34 -0.71, 64.59 -0.09, 61.57 343.37 80
10 10/29/2025 10:58:41 -0.33, 59.98 0.01, 61.64 188.36 80
11 10/31/2025 10:37:44 0.83, 65.11 0.06, 61.68 390.76 80
